Location: ???? ??????????
(38.7455°N, 22.9478°E)
Time: 22:52:07
(UTC+00:00)

Daily predictions for brighter satellites

Satellite Brightness Start Highest point End
(mag) Time Altitude Azimuth Time Altitude Azimuth Time Altitude Azimuth
BREEZE-M DEB (TANK) 2.5 18:21:28 10° SSW 18:23:59 45° SE 18:29:39 10° ENE
Cosmos 1805 3.3 18:21:11 10° N 18:24:53 75° W 18:28:33 10° S
PSLV R/B 3.8 18:21:44 10° SSE 18:25:13 53° ENE 18:28:40 10° N
Tiangong -1.2 18:25:29 10° WNW 18:28:34 48° N 18:31:39 10° ENE
Feng Yun 1-1 Rocket 4.5 18:22:50 10° SSE 18:28:43 88° WSW 18:34:31 10° NNW
Cosmos 1515 Rocket 4.5 18:25:07 10° SSE 18:28:51 29° E 18:32:36 10° NNE
CZ-4B R/B 3.4 18:24:42 10° S 18:29:58 75° WSW 18:35:18 10° NNW
Cosmos 1707 4.2 18:28:27 10° SE 18:30:54 18° E 18:33:22 10° NE
SL-4 R/B 3.7 18:28:03 10° W 18:31:25 34° NNW 18:35:01 10° NE
Cosmos 1633 Rocket 3.1 18:30:52 10° N 18:35:13 60° E 18:39:31 10° SSE
Okean O Rocket 1.6 18:32:11 10° SSE 18:36:35 86° ENE 18:41:00 10° NNW
Cosmos 2026 Rocket 4.0 18:30:31 10° S 18:36:42 76° E 18:42:49 10° N
SeaSat 1 3.9 18:33:11 10° ESE 18:37:07 25° NE 18:41:04 10° N
USA 234 3.2 18:32:15 10° NE 18:38:48 76° SE 18:45:19 10° SW
SL-24 R/B 4.4 18:34:35 10° SSE 18:39:42 71° ENE 18:44:10 10° N
Cosmos 1066 Rocket 4.3 18:33:58 10° S 18:39:45 69° E 18:45:31 10° NNE
CARTOSAT-1 3.8 18:36:55 10° S 18:41:09 68° W 18:45:24 10° NNW
Cosmos 1766 3.4 18:41:27 10° N 18:45:08 50° E 18:48:43 10° SSE
CZ-4 R/B 3.5 18:42:08 10° SSW 18:45:23 24° W 18:48:41 10° NW
FALCON 9 R/B 3.9 18:42:25 10° WSW 18:45:41 20° S 18:51:59 10° SSE
Cosmos 2285 Rocket 4.1 18:40:13 10° SSW 18:46:32 86° WNW 18:52:57 10° NNE
Cosmos 1470 Rocket 3.8 18:42:53 10° N 18:47:07 49° E 18:51:09 11° SSE
Atlas Centaur 2 3.4 18:45:36 10° WSW 18:53:13 44° S 19:00:57 10° ESE
Cosmos 1666 Rocket 4.0 18:50:16 10° NNW 18:54:33 63° W 18:58:51 10° S
ERS-1 Rocket 3.9 18:53:15 13° SE 18:57:03 32° ENE 19:01:29 10° N
IRIDIUM 114 4.4 18:52:33 10° N 18:57:46 66° E 19:02:56 10° S
SL-16 R/B 3.9 18:53:58 10° N 18:57:57 19° NE 19:01:54 10° E
Cosmos 2082 Rocket 2.4 18:52:42 10° SSW 18:58:24 78° WNW 19:04:08 10° NNE
Cosmos 2369 3.9 18:54:17 10° NNW 18:59:58 60° ENE 19:04:36 15° SE
Resurs 01 Rocket 3.0 18:57:03 10° SSW 19:01:08 38° W 19:05:15 10° NNW
Cosmos 1763 Rocket 3.8 18:56:43 10° N 19:01:50 51° ENE 19:05:44 16° SE
BREEZE-M DEB (TANK) 3.0 19:01:42 10° WSW 19:03:56 49° NNW 19:06:38 10° NE
Cosmos 1441 Rocket 4.5 19:03:03 10° NNE 19:05:59 23° ENE 19:07:31 18° ESE
IRIDIUM 103 4.3 19:01:41 10° N 19:06:56 82° E 19:12:08 10° S
SPOT 5 2.7 19:03:33 15° SSE 19:07:00 62° ENE 19:11:18 10° N
Lacrosse 5 rocket 3.3 19:04:22 10° WNW 19:07:34 22° WSW 19:10:42 10° S
Centaur D-1AR AC-39 4.3 19:05:07 10° S 19:15:43 - ESE 19:07:31 14° SSE
Centaur D AC-29 3.6 19:04:47 10° SW 19:10:14 41° SSE 19:37:08 10° ESE
Cosmos 1933 Rocket 4.0 19:07:10 10° N 19:11:26 46° E 19:14:13 20° SE
Cosmos 1470 2.8 19:10:50 10° N 19:14:26 52° E 19:16:30 23° SSE
IRS-1C Rocket 4.1 19:13:04 17° SSE 19:17:10 69° ENE 19:22:24 10° N
Cosmos 1908 3.6 19:18:41 10° N 19:22:07 41° E 19:23:32 28° SE
Cosmos 1674 3.4 19:20:45 10° SSW 19:24:06 46° W 19:27:28 10° N
Ariane Rocket 3.6 19:22:59 22° SE 19:25:53 43° ENE 19:30:41 10° N
Cosmos 1697 Rocket 4.4 19:21:15 10° NW 19:25:54 27° WSW 19:30:30 10° SSW
Cosmos 468 Rocket 4.1 19:23:44 10° N 19:28:54 59° ENE 19:31:49 25° SE
KORONAS-FOTON 4.3 19:26:11 10° SSW 19:29:48 55° W 19:33:29 10° N
COSMOS 2406 4.1 19:25:52 10° SW 19:31:28 52° WNW 19:37:05 10° NNE
Cosmos 1842 4.1 19:29:46 10° SSW 19:33:16 44° W 19:36:47 10° N
Meteor 1-13 Rocket 4.2 19:28:17 12° S 19:33:48 75° E 19:39:31 10° NNE
SPOT 3 Rocket 4.0 19:31:39 24° SE 19:34:21 47° ENE 19:39:17 10° N
MetOp-B 4.4 19:31:48 16° S 19:36:05 68° WSW 19:41:27 10° NNW
Cosmos 1553 Rocket 4.1 19:32:36 10° N 19:38:47 80° W 19:43:46 17° S
S3M 4.2 19:34:39 10° N 19:40:55 56° E 19:44:25 26° SSE
Cosmos 1655 Rocket 4.4 19:38:03 24° SSE 19:41:35 46° E 19:47:38 10° NNE
ARGOS Delta rocket 4.1 19:39:22 18° S 19:42:39 58° W 19:47:01 10° NNW
Cosmos 2322 Rocket 3.6 19:38:05 10° N 19:42:49 27° ENE 19:45:40 18° E
Cosmos 1980 Rocket 3.1 19:37:33 10° NW 19:42:55 44° WSW 19:47:06 16° S
Okean-O 4.3 19:45:24 10° SSW 19:49:11 28° W 19:52:59 10° NW
SJ 16-02 3.0 19:52:10 18° E 19:52:10 18° E 19:54:22 10° NE
Cosmos 2266 Rocket 4.0 19:46:45 18° S 19:51:34 82° E 19:57:58 10° N
Cosmos 2278 3.8 19:46:13 10° NNW 19:51:54 64° ENE 19:54:32 32° SE
Cosmos 1741 Rocket 4.3 19:51:37 32° SSE 19:53:35 47° ESE 19:58:39 10° NNE
USA 245 3.4 19:56:51 40° SSW 19:57:39 53° W 20:01:20 10° NNW
Landsat 5 3.6 19:54:15 10° NNE 19:58:10 51° E 19:58:50 46° SE
Cosmos 540 Rocket 3.7 19:54:09 10° NNW 19:59:15 64° WSW 20:01:44 30° S
Landsat 4 3.3 19:59:02 60° SSE 19:59:36 90° SSE 20:03:04 10° NNW
Terra 2.0 19:59:05 30° S 20:01:20 68° WSW 20:06:03 10° NNW
Cosmos 1400 Rocket 2.7 20:00:07 38° SSW 20:01:32 84° W 20:05:25 10° N
Cosmos 968 Rocket 3.9 20:01:07 36° SE 20:02:01 39° ESE 20:06:48 10° NE
SL-08 ROCKET BODY 4.4 19:58:42 21° S 20:03:01 89° W 20:09:09 10° N
Okean 3 4.5 20:03:17 29° E 20:03:17 29° E 20:06:44 10° NNE
Cosmos 2237 4.2 19:57:54 10° NNW 20:03:39 71° ENE 20:05:58 37° SE
Tiangong -2.1 20:02:21 10° WNW 20:05:19 76° W 20:05:19 76° W
Cosmos 1733 Rocket 3.8 20:02:33 10° N 20:06:40 37° ENE 20:07:15 36° E
Cosmos 2228 Rocket 3.1 20:07:19 46° SSE 20:08:28 66° E 20:13:00 10° NNE
Cosmos 2219 Rocket 4.1 20:07:30 10° N 20:11:26 19° NE 20:14:05 14° E
Cosmos 883 Rocket 4.5 20:06:43 10° N 20:13:03 75° E 20:15:47 36° SSE
SeaSat 1 3.2 20:12:15 28° SSW 20:14:18 43° WSW 20:18:59 10° NW
ATLAS CENTAUR R/B 1.4 20:17:20 49° NE 20:17:20 49° NE 20:20:05 10° NE
Meteor 2-10 Rocket 3.5 20:12:06 10° N 20:17:42 79° E 20:19:27 44° SSE
Meteor 1-15 Rocket 4.2 20:13:25 10° NNW 20:18:59 76° W 20:21:17 37° S
Meteor 1-23 Rocket 4.3 20:16:40 25° SSW 20:20:02 74° W 20:25:44 10° N
Cosmos 1953 4.2 20:23:32 10° NNE 20:25:44 18° ENE 20:25:44 18° ENE
Okean 1-7 3.9 20:28:24 34° ENE 20:28:24 34° ENE 20:31:53 10° NNE
MOS 1 Rocket 4.3 20:26:40 29° SSW 20:29:03 49° W 20:34:15 10° NNW
Cosmos 1455 4.3 20:28:32 10° NNE 20:29:57 15° NE 20:29:57 15° NE
Cosmos 2315 Rocket 4.0 20:25:28 10° N 20:31:51 86° W 20:34:22 40° S
CZ-2C R/B 4.2 20:29:43 10° NNE 20:33:28 41° E 20:33:28 41° E
Cosmos 2360 Rocket 2.6 20:29:21 10° NNW 20:34:55 53° ENE 20:36:22 42° ESE
Cosmos 841 Rocket 3.6 20:34:18 10° NNW 20:39:31 66° WSW 20:40:43 50° SSW
Cosmos 2333 Rocket 2.6 20:34:04 10° NNW 20:39:41 53° ENE 20:41:09 42° ESE
Atlas Centaur 2 3.2 20:34:18 10° WSW 20:42:09 45° S 20:43:37 41° SSE
SL-16 R/B 2.4 20:36:54 10° NNW 20:42:31 64° WSW 20:43:56 47° SSW
SL-14 R/B 4.2 20:42:15 37° WSW 20:42:52 40° W 20:46:27 10° N
RESURS DK-1 2.3 20:41:43 10° NNW 20:45:34 80° NNW 20:45:34 80° NNW
Cosmos 1833 4.1 20:48:14 44° SSW 20:50:08 85° WNW 20:55:48 10° NNE
Aureole 3 3.5 20:50:55 65° NW 20:50:55 65° NW 20:54:53 10° N
Cosmos 1300 3.6 20:49:56 10° NNW 20:52:53 39° WNW 20:52:53 39° WNW
Cosmos 1703 Rocket 4.3 20:55:40 43° ENE 20:55:40 43° ENE 20:59:18 10° NNE
Cosmos 1932 4.3 20:54:12 44° SSW 20:56:24 81° ESE 21:02:43 10° NNE
Cosmos 1862 Rocket 4.2 20:55:44 43° WSW 20:56:27 48° W 21:00:44 10° N
Cosmos 1346 Rocket 3.6 20:58:17 10° NNW 21:01:36 43° WNW 21:01:36 43° WNW
Meteor 1-16 Rocket 4.2 20:58:39 10° N 21:04:36 90° W 21:05:41 62° S
ATLAS 2AS CENTAUR R/B 2.7 20:59:14 10° NNW 21:06:01 70° NE 21:07:52 49° ESE
Meteor 1-4 Rocket 4.5 21:09:49 23° NNW 21:09:49 23° NNW 21:11:15 10° N
Cosmos 2333 4.2 21:06:21 10° NNW 21:12:09 76° ENE 21:12:55 65° ESE
ARIANE 5 R/B 2.7 21:17:31 70° NNW 21:17:31 70° NNW 21:21:22 10° NNW
Cosmos 1745 Rocket 4.0 21:20:33 58° SE 21:21:20 63° E 21:27:36 10° NNE
Okean 2 4.3 21:24:44 44° NW 21:24:44 44° NW 21:28:04 10° N
COSMOS 2455 3.7 21:25:53 36° E 21:25:53 36° E 21:30:33 10° NE
Cosmos 2322 Rocket 2.8 21:21:39 10° NW 21:26:59 43° WSW 21:27:28 42° WSW
SJ 16-02 2.6 21:28:53 32° W 21:29:25 33° WNW 21:33:22 10° N
Cosmos 2297 Rocket 3.7 21:31:24 23° E 21:31:24 23° E 21:34:41 10° NE
USA 281 3.1 21:32:45 59° S 21:33:57 73° WSW 21:40:32 10° NNW
Nadezhda 1 Rocket 3.9 21:30:02 10° N 21:36:20 75° E 21:37:05 67° SE
Cosmos 1386 Rocket 4.5 21:39:28 62° SSW 21:40:32 78° W 21:46:49 10° N
GP-B 3.9 21:40:58 10° N 21:44:46 46° WNW 21:44:46 46° WNW
COSMOS 2428 3.3 21:40:00 10° NNW 21:45:29 47° ENE 21:46:15 44° E
GEOS 3 Rocket 4.3 21:46:40 10° NE 21:50:25 41° ENE 21:50:25 41° ENE
Cosmos 2219 Rocket 2.2 21:50:14 10° NNW 21:55:47 65° WSW 21:55:47 65° WSW
Spot 2 4.5 21:57:38 76° NNE 21:57:38 76° NNE 22:02:26 10° N
Cosmos 1782 Rocket 4.3 21:53:52 10° N 21:57:10 51° NNW 21:57:10 51° NNW
H-2A R/B 3.5 21:59:30 43° NW 21:59:30 43° NW 22:02:41 10° NNW
Cosmos 2208 Rocket 4.2 21:54:07 10° NNW 21:59:07 63° ENE 21:59:07 63° ENE
Cosmos 371 Rocket 4.0 22:00:27 47° NE 22:00:27 47° NE 22:04:07 10° NNE
Cosmos 1953 4.3 21:58:53 10° NW 22:00:51 21° WNW 22:00:51 21° WNW
Cosmos 158 Rocket 4.2 21:57:16 10° NNW 22:02:24 63° ENE 22:02:24 63° ENE
Spot 4 4.2 22:03:33 57° WNW 22:03:33 57° WNW 22:07:40 10° NNW
CZ-4C R/B 2.4 22:11:44 48° NE 22:11:44 48° NE 22:15:37 10° NE
ALOS 2 3.3 22:11:53 50° NW 22:11:53 50° NW 22:15:14 10° NNW
Cosmos 1503 Rocket 4.4 22:11:39 54° ENE 22:11:39 54° ENE 22:16:14 10° NNE
CENTAUR R/B 3.9 22:13:10 21° E 22:13:10 21° E 22:16:40 10° ENE
Cosmos 2360 Rocket 3.9 22:14:26 10° NW 22:18:06 20° W 22:18:06 20° W
Cosmos 1709 Rocket 4.1 22:20:21 59° WSW 22:21:10 65° W 22:27:30 10° N
Cosmos 2333 Rocket 3.9 22:19:23 10° NW 22:23:08 20° W 22:23:08 20° W
H-2A R/B 3.0 22:20:31 10° NNE 22:23:29 43° NNE 22:23:29 43° NNE
Cosmos 2184 Rocket 4.4 22:30:27 47° ESE 22:31:04 49° E 22:37:08 10° NNE
Cosmos 1378 Rocket 4.4 22:37:10 48° NNE 22:37:10 48° NNE 22:40:22 10° N
Cosmos 2098 Rocket 3.9 22:31:38 10° N 22:38:17 90° E 22:38:55 75° S
Meteor 1-24 Rocket 3.8 22:39:51 65° W 22:40:07 65° W 22:45:50 10° N
Sich 1 Rocket 4.5 22:36:53 10° N 22:40:19 44° NE 22:40:19 44° NE
NOSS 0 Rocket 3.8 22:36:37 10° NNW 22:42:53 89° WSW 22:43:21 78° SSE
Cosmos 2154 Rocket 4.3 22:46:40 51° ESE 22:47:20 53° E 22:53:23 10° NNE
Cosmos 1825 4.2 22:51:34 24° NNE 22:51:34 24° NNE 22:53:05 10° NNE
BlueWalker 3 3.9 22:50:03 25° NNW 22:50:03 25° NNW 22:53:07 10° NNE
Cosmos 1354 Rocket 4.0 22:51:12 78° NNW 22:51:12 78° NNW 22:56:19 10° NNE
Cosmos 2237 Rocket 2.3 22:46:10 10° NNW 22:51:48 64° ENE 22:52:21 60° E
Cosmos 332 Rocket 4.2 22:52:48 59° NE 22:52:48 59° NE 22:56:56 10° NNE
Cosmos 2227 Rocket 2.3 22:53:35 64° E 22:53:35 64° E 22:59:02 10° NNE
ATLAS 2AS CENTAUR R/B 4.2 22:51:35 10° WNW 22:55:16 19° W 22:55:16 19° W
Cosmos 405 Rocket 4.4 22:53:57 10° NNW 22:55:58 30° NNW 22:55:58 30° NNW
Cosmos 1980 3.5 22:58:47 10° NNW 23:04:29 87° ENE 23:04:39 84° SE
Nimbus 7 Rocket 4.4 22:59:02 10° NNE 23:05:07 69° ESE 23:05:40 65° SE
COSMOS 2455 4.0 23:08:58 28° W 23:10:58 35° NW 23:16:27 10° NNE
Cosmos 2219 3.6 23:12:45 49° ESE 23:12:48 49° ESE 23:18:12 10° NNE
Cosmos 2297 Rocket 2.9 23:13:10 41° W 23:13:58 44° WNW 23:19:21 10° N
Cosmos 2181 Rocket 4.3 23:15:58 10° NNW 23:21:51 48° W 23:22:13 48° WSW
CZ-2D R/B 4.0 23:20:16 10° NE 23:23:57 19° E 23:25:12 17° ESE
Cosmos 1610 Rocket 4.4 23:24:39 65° S 23:25:42 84° E 23:32:06 10° N
Okean 1 Rocket 3.6 23:23:13 10° NNW 23:26:38 53° NNW 23:26:38 53° NNW
Celestis-02/Orion 38 4.5 23:28:23 81° SW 23:28:31 82° WSW 23:33:55 10° NNW
COSMOS 2428 4.3 23:25:01 10° NW 23:28:13 21° W 23:28:13 21° W
SL-4 R/B 3.3 23:26:54 10° NW 23:30:54 41° NNE 23:34:13 15° E
IDEFIX/ARIANE 42P 3.7 23:27:21 10° NE 23:32:00 32° E 23:32:47 30° ESE
Cosmos 2074 Rocket 4.3 23:33:38 46° WSW 23:34:29 50° W 23:40:30 10° N
Aureole 1 Rocket 3.9 23:40:08 37° NE 23:40:08 37° NE 23:42:43 10° NNE
Cosmos 990 Rocket 4.2 23:48:51 55° W 23:49:11 56° WNW 23:54:14 10° N
Cosmos 1975 Rocket 3.1 23:49:29 74° NE 23:49:29 74° NE 23:53:34 10° N
MOZ.5/SAFIR/RUBIN 5/SL-8 4.1 23:49:47 52° ESE 23:50:30 59° ENE 23:55:04 10° N
Cosmos 2263 Rocket 2.1 23:50:27 64° SSE 23:51:10 73° ESE 23:56:45 10° NNE
Cosmos 1461 4.1 23:54:22 31° E 23:54:22 31° E 23:57:13 10° NE
Helios 1A Rocket 3.5 23:56:30 46° NNW 23:56:30 46° NNW 23:59:17 10° NNW
